{"data":{"norad_id":53234,"intl_designator":"2022-084AX","name":"STARLINK-4368","alt_names":[],"object_type":"PAYLOAD","status":"ACTIVE","operator":null,"country":"US","launch_date":"2022-07-22","launch_site_code":"AFWTR","launch_vehicle":null,"mission":null,"orbit_class":"UNKNOWN","rcs_meters":null,"size_class":null,"mass_kg":null,"dimensions":null,"purposes":["comms"],"wikipedia_slug":null,"has_3d_model":false,"image_url":null,"decayed_at":null,"tle_current":{"epoch":"2026-09-20T00:44:39.429024Z","epoch_age_seconds":115980,"freshness":"FRESH","line1":"1 53234U 22084AX  26263.03101191  .00000160  00000+0  67055-5 0  9992","line2":"2 53234  97.4736 327.7038 0001275  74.2936 285.8448 15.36975058229990","mean_motion":15.36975058,"eccentricity":0.0001275,"inclination_deg":97.4736,"raan_deg":327.7038,"arg_perigee_deg":74.2936,"mean_anomaly_deg":285.8448,"bstar":6.7055e-6,"rev_number":22999,"period_min":93.690524937588,"perigee_km":454.18908025883,"apogee_km":455.93154557362,"semimajor_km":6833.1973129162,"source":"CELESTRAK","updated_at":"2026-09-20T09:00:40.197335Z"}}}